Wind_Speed
41 40 39 39 38 35 30 29 27 27 25 25 23 22 21 23 24 23 22 21 19 20 22 25 26 21 19 17 17 16 17 19 20 20 20 19 20 20 21 22 24 23 23
45 44 45 43 40 36 33 30 29 28 27 28 26 23 25 24 25 23 21 19 18 19 20 23 21 18 17 17 13 13 16 19 20 18 18 17 18 19 21 23 22 23 24
49 47 46 44 43 39 36 32 30 30 30 29 28 25 23 24 23 23 21 19 20 21 21 22 21 20 17 14 14 15 17 17 18 18 17 16 18 19 20 21 21 22 25
55 50 49 46 44 42 38 35 32 29 28 29 28 25 24 24 24 24 23 22 23 23 22 21 22 21 17 15 15 15 17 18 18 19 18 17 18 19 21 21 22 23 24
59 54 51 50 45 43 40 37 33 31 30 30 30 27 26 25 25 26 23 24 25 24 23 21 22 22 20 19 18 17 18 18 19 20 20 21 21 22 23 24 23 24 26
63 59 56 52 48 44 42 39 37 33 33 33 32 31 29 29 27 29 25 25 26 26 24 23 23 23 22 22 21 20 19 19 20 21 21 22 23 24 25 24 25 28 28
67 63 59 56 51 48 46 43 41 39 35 33 33 33 32 32 31 28 28 27 28 28 26 26 25 23 23 22 22 22 20 20 21 22 22 23 25 26 28 28 27 33 34
70 68 64 59 56 52 49 46 44 43 39 36 35 35 34 34 33 31 29 30 28 29 30 28 26 23 23 22 21 22 22 22 23 25 26 26 28 30 32 32 32 35 38
69 67 68 63 59 54 53 50 48 46 44 41 40 40 40 40 38 36 35 32 32 31 31 32 28 24 23 25 25 23 23 25 27 29 29 29 29 31 33 34 39 39 41
64 66 70 65 63 57 54 50 50 48 49 46 45 43 44 42 41 39 36 38 35 34 33 33 33 29 25 27 29 30 28 27 29 31 31 30 32 36 39 40 42 45 50
67 64 64 71 67 61 58 56 50 50 53 51 49 47 46 46 43 43 42 37 37 34 33 32 30 28 29 26 26 27 30 29 33 35 34 33 36 39 42 46 45 47 51
69 69 59 64 68 66 62 60 55 52 49 51 51 50 48 49 47 45 43 41 38 35 35 35 34 32 31 28 26 25 26 30 31 34 34 36 39 41 46 47 49 50 50
71 72 66 60 61 66 65 62 59 57 53 52 52 53 52 45 44 45 44 42 40 39 37 35 34 35 34 34 34 33 33 34 35 36 38 40 43 42 47 52 52 52 52
59 64 69 67 58 58 58 59 60 62 55 54 57 53 51 52 49 45 44 44 44 42 39 37 37 38 39 39 40 43 42 38 37 38 39 41 43 48 52 54 54 54 53
77 66 66 63 66 60 59 59 59 54 56 56 56 54 52 50 47 48 50 49 49 46 45 42 43 44 45 46 42 44 44 42 39 40 44 46 51 55 56 55 55 54 54
81 77 72 56 54 64 62 57 58 60 58 55 54 51 49 49 48 50 50 49 46 45 46 48 49 45 46 45 45 45 45 46 47 45 45 52 54 55 54 59 62 62 65
68 70 72 76 61 62 60 50 50 45 53 57 54 52 52 51 51 53 52 49 47 49 46 49 49 49 46 47 49 48 51 50 51 54 58 60 57 61 58 61 64 65 65
77 66 60 60 64 64 67 54 51 51 48 50 48 49 50 50 51 46 41 45 51 53 58 53 50 52 49 52 51 53 54 56 59 60 64 59 63 68 65 62 61 62 67
72 67 67 65 63 61 58 56 53 54 50 42 42 46 52 59 63 65 64 63 63 61 49 48 50 52 54 58 59 61 61 62 64 64 63 65 70 74 64 68 66 70 68
87 68 64 73 68 63 66 60 58 56 55 58 54 59 59 66 69 73 72 66 57 57 54 56 57 60 66 68 73 74 71 64 62 66 66 71 72 67 71 73 77 74 72
85 83 74 65 60 59 67 73 70 65 65 61 67 69 77 82 79 80 75 71 69 69 73 71 75 77 71 76 72 68 68 70 69 70 72 75 75 73 73 78 82 81 72
90 81 83 78 66 66 66 67 70 71 69 70 71 70 64 65 57 65 70 66 71 73 77 81 79 82 78 78 72 71 74 76 70 72 75 82 82 73 81 84 84 64 76
103 92 83 86 77 69 81 67 72 74 79 75 64 64 61 62 66 71 72 73 75 78 80 85 86 80 80 84 77 78 82 79 81 83 83 83 81 87 85 80 81 74 77
116 109 96 95 80 74 83 85 63 73 75 74 68 70 69 71 76 76 79 83 86 88 89 88 84 88 88 90 94 91 92 86 87 81 87 90 91 93 84 83 82 90 87
109 109 104 109 95 82 81 87 83 74 59 72 74 72 73 74 74 60 57 65 74 76 82 79 80 90 89 94 97 95 91 85 83 90 94 94 91 86 88 94 97 97 96
102 107 101 98 103 97 91 90 87 81 71 59 71 78 79 78 76 75 75 72 74 87 89 86 86 92 96 96 98 103 92 94 98 96 87 87 88 97 99 104 100 98 96
Wind_Direction
245 247 248 249 251 255 259 262 265 264 268 268 271 275 278 275 272 274 277 286 292 296 301 305 305 304 311 310 303 312 324 326 321 313 314 310 313 315 320 323 326 331 335
242 245 245 246 249 251 256 259 265 270 268 270 267 274 280 283 276 274 280 283 288 296 300 310 306 303 308 313 315 330 336 336 329 327 315 312 313 318 317 320 328 332 336
243 243 244 247 249 250 254 256 260 265 268 265 266 270 281 285 281 276 277 284 289 297 298 302 308 303 305 313 319 330 334 339 341 338 331 326 320 320 320 324 330 332 334
242 243 242 245 247 247 250 252 254 258 263 262 262 271 278 285 284 277 277 279 286 295 295 303 307 309 301 302 307 314 320 324 330 332 331 329 326 324 325 326 330 328 330
241 243 243 245 246 246 248 251 253 255 260 264 264 271 276 282 285 282 279 279 285 291 293 302 306 307 302 296 299 308 312 315 321 324 325 326 326 325 324 325 323 321 323
241 239 243 244 245 245 246 250 254 254 258 263 265 270 274 277 284 286 283 282 284 285 292 300 305 304 305 296 292 297 303 311 317 317 320 321 321 318 317 315 317 320 318
239 238 241 245 246 245 245 247 252 254 256 260 266 266 271 276 280 286 285 282 283 285 289 296 300 301 303 306 302 299 302 307 309 310 311 312 313 315 312 310 319 324 322
238 239 239 242 244 246 247 249 252 254 257 257 261 264 266 272 277 281 286 284 281 283 286 291 294 295 296 297 301 303 302 305 308 311 310 310 311 313 313 311 314 320 321
238 238 239 240 242 246 246 247 250 253 255 256 259 263 267 270 274 277 282 286 280 276 280 287 289 288 293 295 297 295 298 300 309 310 309 307 309 312 316 315 314 314 317
237 241 241 239 240 243 245 247 249 251 253 256 258 262 266 268 271 273 277 283 284 284 286 289 289 287 290 296 295 291 291 299 307 307 308 304 309 312 315 315 314 315 316
236 240 242 237 240 241 245 251 250 253 253 255 257 260 265 266 267 273 276 275 279 279 282 286 289 290 287 300 303 307 296 296 304 303 303 302 306 310 311 311 312 315 315
232 236 238 240 239 240 241 246 252 252 253 255 255 260 265 266 266 268 273 273 276 277 282 280 283 287 289 287 295 302 304 303 306 310 304 301 304 304 306 308 312 313 312
234 237 234 238 238 241 242 245 249 252 251 255 256 261 263 263 265 270 268 271 273 275 276 277 278 281 285 285 288 291 297 298 300 303 305 304 302 304 305 310 313 312 310
223 224 236 235 237 238 239 240 246 248 249 253 255 259 262 259 263 262 264 264 268 269 270 274 276 281 281 282 285 293 290 293 296 298 302 304 301 299 305 309 308 309 306
225 232 231 235 235 238 241 243 247 247 249 249 255 260 259 258 254 257 259 264 269 271 272 271 274 279 281 283 281 291 291 290 289 293 299 299 298 303 307 307 310 307 307
218 227 228 224 227 235 242 246 246 251 252 252 249 257 249 251 254 257 260 264 270 273 269 270 274 278 278 281 285 286 286 286 289 292 298 296 303 309 310 311 311 310 314
219 231 232 228 231 238 246 241 242 240 247 247 249 248 250 258 259 260 264 270 275 276 271 270 269 273 276 279 280 286 283 282 287 293 296 299 307 310 308 314 313 310 311
221 224 229 232 233 243 241 236 235 247 247 245 240 246 251 254 256 259 265 273 281 276 280 268 270 272 273 276 278 280 285 284 289 291 298 301 306 307 310 314 311 308 315
217 224 227 226 231 229 229 232 240 236 238 241 240 253 264 270 272 270 271 276 279 277 267 272 272 274 278 284 283 287 288 287 291 295 299 300 308 309 305 309 310 311 315
218 212 219 218 230 227 229 233 237 233 240 246 254 264 268 271 271 271 272 277 277 266 265 267 273 279 283 284 287 287 286 287 291 295 299 301 305 304 302 305 310 311 311
212 217 219 223 221 226 232 236 240 245 247 245 259 268 273 272 272 270 271 277 274 270 274 276 276 284 284 286 283 281 283 290 294 294 296 296 299 298 298 303 307 308 313
209 215 220 220 227 229 233 233 239 247 247 250 259 266 269 270 264 272 276 272 270 272 272 273 283 283 281 281 278 281 286 292 293 289 294 297 302 299 303 304 309 304 311
211 212 216 222 225 229 233 235 241 243 244 254 256 255 258 263 263 266 268 271 274 274 270 270 276 279 280 279 278 280 289 287 288 289 292 296 296 304 304 304 306 301 304
213 214 219 222 222 226 233 235 234 241 248 246 248 252 255 257 261 264 264 270 271 273 272 272 270 275 279 276 278 282 285 290 291 290 294 297 301 302 306 303 301 304 301
214 218 221 223 222 223 221 228 233 233 238 239 244 246 248 252 256 261 257 260 271 270 273 279 277 282 280 282 282 284 289 288 289 292 295 299 302 304 301 302 301 301 300
215 209 215 220 225 225 228 230 234 234 229 236 246 246 245 249 252 254 258 258 259 268 275 278 277 280 282 284 284 288 290 293 295 296 295 298 296 296 297 298 300 299 299
Height
10903 10907 10909 10911 10913 10915 10918 10920 10922 10924 10926 10928 10928 10929 10930 10930 10931 10931 10931 10932 10932 10931 10930 10927 10926 10924 10922 10921 10920 10919 10917 10916 10914 10913 10911 10911 10911 10909 10908 10906 10904 10901 10899
10897 10900 10903 10905 10908 10911 10913 10916 10918 10920 10923 10924 10925 10926 10926 10927 10927 10927 10927 10928 10928 10928 10926 10924 10922 10920 10919 10918 10917 10916 10915 10913 10911 10909 10908 10907 10906 10905 10904 10902 10900 10897 10894
10890 10894 10897 10900 10903 10906 10909 10911 10913 10916 10918 10919 10921 10921 10922 10923 10923 10923 10923 10924 10924 10924 10923 10921 10919 10918 10916 10914 10914 10913 10912 10910 10909 10907 10905 10904 10903 10901 10899 10898 10896 10894 10891
10882 10887 10890 10894 10897 10901 10903 10906 10908 10911 10913 10915 10916 10917 10918 10919 10919 10919 10919 10920 10920 10920 10920 10918 10916 10915 10913 10911 10911 10910 10909 10908 10907 10905 10903 10901 10899 10897 10896 10894 10892 10890 10887
10874 10880 10884 10888 10891 10896 10898 10901 10904 10906 10908 10910 10912 10913 10914 10914 10915 10915 10915 10916 10916 10916 10915 10914 10913 10911 10909 10908 10907 10906 10905 10905 10903 10902 10900 10898 10896 10894 10892 10890 10888 10885 10883
10865 10871 10877 10881 10885 10889 10893 10896 10899 10901 10903 10905 10906 10908 10909 10910 10910 10911 10911 10911 10911 10911 10911 10910 10909 10907 10906 10905 10904 10903 10902 10901 10900 10898 10896 10894 10892 10890 10888 10886 10883 10881 10878
10856 10862 10868 10873 10878 10882 10886 10889 10892 10895 10897 10899 10901 10903 10904 10904 10905 10906 10906 10906 10907 10907 10907 10906 10905 10903 10902 10901 10900 10899 10898 10896 10895 10893 10892 10890 10888 10886 10884 10882 10880 10877 10873
10846 10852 10859 10864 10870 10874 10878 10882 10886 10889 10891 10893 10895 10897 10898 10899 10900 10901 10901 10902 10901 10902 10902 10901 10900 10899 10898 10897 10895 10895 10894 10893 10891 10889 10887 10885 10883 10881 10880 10878 10875 10872 10868
10836 10842 10850 10855 10862 10866 10870 10874 10878 10881 10884 10886 10888 10890 10891 10893 10894 10895 10896 10896 10896 10895 10895 10896 10895 10895 10893 10893 10892 10890 10889 10888 10887 10885 10883 10880 10878 10876 10874 10872 10870 10866 10862
10825 10833 10840 10846 10852 10857 10863 10866 10870 10873 10876 10879 10881 10882 10885 10887 10888 10889 10890 10891 10890 10890 10890 10890 10890 10890 10889 10887 10886 10885 10884 10883 10881 10879 10877 10875 10873 10871 10868 10866 10863 10859 10855
10816 10822 10828 10835 10842 10848 10854 10858 10861 10865 10868 10870 10873 10875 10877 10879 10881 10882 10883 10883 10884 10884 10883 10883 10884 10884 10884 10883 10881 10879 10878 10877 10875 10873 10871 10869 10867 10865 10861 10858 10856 10853 10848
10803 10811 10818 10824 10831 10837 10843 10848 10852 10856 10859 10862 10864 10867 10869 10871 10873 10875 10875 10876 10876 10876 10877 10877 10877 10877 10877 10876 10875 10873 10871 10870 10868 10866 10864 10862 10861 10858 10855 10852 10849 10845 10840
10795 10801 10808 10815 10821 10828 10834 10838 10843 10846 10850 10853 10856 10859 10862 10863 10865 10866 10867 10868 10868 10869 10869 10869 10870 10870 10870 10870 10869 10868 10866 10864 10861 10859 10857 10855 10853 10851 10847 10845 10842 10837 10832
10782 10792 10800 10806 10812 10818 10823 10827 10832 10835 10839 10843 10846 10850 10852 10854 10856 10857 10858 10858 10859 10860 10861 10862 10862 10862 10862 10861 10861 10860 10858 10857 10855 10852 10849 10847 10845 10843 10840 10835 10833 10830 10822
10775 10779 10790 10796 10803 10807 10812 10817 10821 10826 10830 10834 10838 10841 10842 10844 10846 10847 10848 10850 10851 10852 10853 10853 10853 10853 10852 10852 10852 10851 10850 10849 10847 10845 10842 10839 10837 10835 10833 10828 10823 10820 10817
10766 10772 10778 10782 10786 10795 10801 10806 10811 10817 10820 10824 10827 10831 10832 10834 10837 10838 10839 10841 10842 10843 10843 10844 10844 10843 10842 10842 10842 10841 10840 10839 10838 10836 10833 10829 10827 10826 10823 10821 10816 10812 10807
10753 10759 10767 10773 10780 10785 10791 10796 10802 10805 10809 10814 10818 10820 10823 10825 10827 10829 10831 10834 10835 10835 10834 10834 10833 10832 10832 10832 10832 10831 10830 10829 10828 10827 10825 10823 10819 10818 10815 10811 10807 10803 10798
10746 10751 10760 10767 10775 10779 10785 10787 10792 10797 10801 10805 10807 10810 10812 10814 10817 10820 10821 10823 10825 10825 10824 10822 10823 10822 10822 10822 10821 10820 10821 10820 10820 10818 10818 10815 10811 10808 10806 10801 10797 10791 10786
10735 10744 10750 10758 10762 10769 10772 10777 10782 10785 10791 10795 10796 10798 10799 10801 10806 10807 10811 10814 10814 10814 10813 10812 10812 10811 10811 10810 10811 10809 10809 10809 10809 10810 10808 10806 10801 10798 10794 10789 10786 10781 10775
10731 10735 10740 10745 10750 10759 10764 10767 10768 10773 10778 10782 10785 10785 10787 10789 10791 10793 10798 10801 10802 10803 10799 10798 10799 10798 10798 10797 10798 10799 10799 10798 10799 10799 10797 10794 10791 10786 10781 10776 10772 10768 10763
10722 10724 10731 10737 10743 10748 10754 10759 10759 10763 10768 10773 10774 10774 10774 10776 10777 10779 10785 10787 10788 10788 10786 10784 10785 10784 10785 10785 10785 10785 10785 10787 10789 10787 10784 10782 10779 10775 10768 10763 10758 10754 10749
10699 10706 10714 10724 10730 10733 10740 10747 10751 10754 10758 10762 10765 10764 10763 10763 10761 10759 10764 10771 10771 10771 10772 10770 10769 10770 10772 10771 10771 10772 10772 10774 10775 10772 10770 10767 10764 10761 10757 10750 10745 10740 10738
10677 10687 10699 10706 10718 10724 10731 10734 10738 10745 10748 10750 10753 10754 10754 10755 10753 10750 10750 10751 10749 10752 10756 10757 10755 10756 10756 10755 10757 10758 10759 10757 10760 10759 10756 10752 10749 10745 10741 10736 10731 10726 10723
10663 10670 10685 10695 10705 10712 10718 10723 10726 10730 10734 10737 10738 10740 10744 10744 10743 10743 10740 10734 10733 10734 10735 10737 10741 10742 10739 10736 10740 10741 10745 10743 10741 10738 10735 10735 10731 10728 10723 10719 10714 10711 10705
10649 10665 10677 10684 10697 10696 10697 10704 10713 10717 10719 10721 10725 10729 10730 10729 10729 10730 10727 10723 10719 10715 10713 10719 10721 10722 10722 10718 10718 10721 10725 10728 10728 10727 10719 10715 10711 10707 10706 10701 10698 10694 10690
10634 10650 10661 10670 10684 10687 10691 10694 10697 10702 10708 10708 10707 10710 10715 10716 10716 10716 10714 10711 10705 10704 10703 10703 10704 10704 10701 10699 10696 10698 10701 10703 10706 10706 10705 10699 10699 10696 10692 10687 10682 10678 10673